DW9682 Weather Reports


Display with metric or nautical units.
time (UTC)temp
F
wind
direction
speed
MPH
gust
MPH
rain 1hr
in
rain 24hr
in
rain mn
in
humidity
%
barometer
mb
20260506154032 50 47 0.0 0.0 0.12 0.48 0.45 96 1006.0
20260506153829 50 47 0.0 0.0 0.12 0.48 0.45 96 1006.0
20260506153724 50 47 0.0 0.0 0.12 0.48 0.45 96 1006.0
20260506153617 50 47 0.0 1.0 0.12 0.46 0.45 96 1006.0
20260506153512 50 47 0.0 1.0 0.12 0.46 0.43 96 1006.0
20260506152932 51 47 0.0 1.0 0.13 0.45 0.43 96 1005.8
20260506152828 51 47 0.0 0.0 0.16 0.45 0.43 96 1005.9
20260506152725 51 47 0.0 0.0 0.16 0.45 0.43 96 1005.9
20260506152621 51 47 0.0 0.0 0.16 0.45 0.43 96 1005.8
20260506152516 51 47 0.0 0.0 0.16 0.45 0.42 96 1005.9
20260506152412 51 47 0.0 0.0 0.13 0.45 0.42 96 1005.9
20260506152307 51 47 0.0 0.0 0.13 0.45 0.42 96 1006.0
20260506152205 51 47 0.0 0.0 0.13 0.43 0.42 96 1006.0
20260506151837 51 47 0.0 0.0 0.12 0.43 0.40 96 1006.0
20260506151730 51 47 0.0 3.0 0.12 0.42 0.40 96 1006.0
20260506151626 51 47 0.0 3.0 0.13 0.42 0.40 96 1006.1
20260506151304 51 47 0.0 1.0 0.15 0.42 0.40 96 1006.1
20260506151157 51 47 0.0 1.0 0.15 0.42 0.40 96 1006.1
20260506151053 51 47 0.0 1.0 0.13 0.42 0.38 96 1006.1
20260506150729 51 47 0.0 0.0 0.12 0.41 0.38 96 1006.2
20260506150144 51 47 0.0 0.0 0.13 0.39 0.37 96 1006.3
20260506150038 51 47 0.0 3.0 0.13 0.39 0.37 96 1006.2
20260506145936 51 47 0.0 3.0 0.13 0.39 0.37 95 1006.3
20260506145832 51 47 0.0 3.0 0.13 0.39 0.37 96 1006.3
20260506145728 51 42 0.0 3.0 0.15 0.39 0.36 96 1006.4
20260506145626 52 42 0.0 3.0 0.19 0.39 0.36 96 1006.4
20260506145258 52 42 0.0 0.0 0.13 0.38 0.35 96 1006.5
20260506145150 52 42 0.0 0.0 0.13 0.36 0.35 96 1006.5
20260506144824 52 42 0.0 1.0 0.13 0.36 0.34 96 1006.6
20260506144722 52 42 0.0 0.0 0.13 0.35 0.34 96 1006.6
20260506144618 52 42 0.0 0.0 0.13 0.35 0.34 96 1006.6
20260506144513 52 42 0.0 0.0 0.10 0.35 0.33 96 1006.6
20260506144409 52 42 0.0 0.0 0.10 0.35 0.33 96 1006.6
20260506144307 52 42 0.0 0.0 0.10 0.35 0.33 96 1006.6
20260506144200 52 42 0.0 0.0 0.10 0.35 0.33 96 1006.6
20260506144053 52 42 0.0 0.0 0.12 0.35 0.32 96 1006.6
20260506143945 52 42 0.0 0.0 0.12 0.35 0.32 96 1006.7
20260506143839 52 42 0.0 0.0 0.12 0.35 0.32 96 1006.7
20260506143737 52 42 0.0 0.0 0.12 0.34 0.32 96 1006.7
20260506143631 52 42 0.0 0.0 0.12 0.34 0.32 96 1006.7
20260506143305 52 42 0.0 0.0 0.10 0.34 0.31 96 1006.8
20260506143202 52 42 0.0 0.0 0.10 0.32 0.31 96 1006.8
20260506142838 52 42 0.0 0.0 0.13 0.32 0.30 96 1006.8
20260506142736 52 42 0.0 0.0 0.13 0.32 0.30 96 1006.8
20260506142631 52 42 0.0 3.0 0.13 0.32 0.30 96 1006.8
20260506142525 52 42 0.0 3.0 0.13 0.32 0.28 96 1006.8
20260506142421 52 42 0.0 1.0 0.13 0.32 0.28 96 1006.8
20260506142102 52 42 0.0 1.0 0.12 0.31 0.27 96 1006.9
20260506141957 52 42 0.0 1.0 0.12 0.31 0.27 96 1006.9
20260506141854 52 42 0.0 1.0 0.12 0.31 0.27 96 1006.9
20260506141745 52 42 0.0 1.0 0.12 0.29 0.27 96 1007.0
20260506141641 52 42 0.0 0.0 0.12 0.29 0.27 96 1007.0
20260506141534 52 42 0.0 0.0 0.10 0.29 0.27 96 1007.0
20260506141206 52 42 0.0 0.0 0.10 0.29 0.27 96 1007.1
20260506141101 52 42 0.0 0.0 0.13 0.29 0.26 96 1007.0
20260506140957 52 42 0.0 0.0 0.15 0.29 0.26 96 1007.0
20260506140633 52 42 0.0 0.0 0.15 0.27 0.26 96 1007.0
20260506140310 52 42 0.0 0.0 0.09 0.27 0.25 96 1007.0
20260506140204 52 42 0.0 0.0 0.09 0.27 0.24 96 1006.9
20260506135840 52 42 0.0 0.0 0.10 0.27 0.24 96 1006.8
20260506135737 52 42 0.0 0.0 0.10 0.27 0.24 96 1006.8
20260506135635 52 42 0.0 0.0 0.10 0.26 0.24 96 1006.7
20260506135311 53 42 0.0 3.0 0.08 0.26 0.23 96 1006.6
20260506135205 53 42 0.0 3.0 0.08 0.26 0.23 96 1006.7
20260506135100 53 42 0.0 0.0 0.08 0.24 0.23 96 1006.7
20260506134953 53 42 0.0 0.0 0.08 0.24 0.21 96 1006.7
20260506134849 53 42 0.0 0.0 0.08 0.24 0.21 96 1006.6
20260506134746 53 42 0.0 0.0 0.08 0.24 0.21 96 1006.6
20260506134638 53 42 0.0 0.0 0.08 0.24 0.21 96 1006.7
20260506134532 53 42 0.0 0.0 0.08 0.24 0.21 96 1006.6
20260506134429 53 42 0.0 0.0 0.08 0.24 0.21 96 1006.6
20260506134102 53 42 0.0 1.0 0.06 0.24 0.21 96 1006.4
20260506133959 53 42 0.0 1.0 0.06 0.24 0.21 96 1006.5
20260506133856 53 42 0.0 1.0 0.06 0.24 0.21 96 1006.4
20260506133751 53 42 0.0 0.0 0.06 0.24 0.21 96 1006.4
20260506133649 53 42 0.0 0.0 0.06 0.24 0.21 96 1006.4
20260506133543 53 42 0.0 0.0 0.06 0.22 0.21 96 1006.4
20260506133440 53 42 0.0 0.0 0.08 0.22 0.20 96 1006.4
20260506133333 53 42 0.0 0.0 0.08 0.22 0.20 96 1006.4
20260506133228 53 42 0.0 0.0 0.08 0.22 0.20 96 1006.4
20260506133123 53 42 0.0 1.0 0.08 0.22 0.20 96 1006.4
20260506133018 53 42 0.0 1.0 0.08 0.22 0.20 96 1006.5
20260506132915 53 42 0.0 0.0 0.08 0.22 0.20 96 1006.6
20260506132812 53 42 0.0 0.0 0.08 0.22 0.20 96 1006.6
20260506132707 53 42 0.0 0.0 0.08 0.22 0.20 96 1006.6
20260506132343 53 42 0.0 3.0 0.08 0.22 0.19 96 1006.6
20260506132022 54 42 0.0 0.0 0.08 0.21 0.19 96 1006.5
20260506131439 54 42 0.0 3.0 0.09 0.21 0.18 96 1006.4
20260506131334 54 260 0.0 0.0 0.09 0.21 0.18 96 1006.5
20260506131231 54 259 0.0 0.0 0.09 0.19 0.18 96 1006.6
20260506131123 54 259 0.0 0.0 0.09 0.19 0.17 96 1006.6
20260506130758 54 259 0.0 0.0 0.08 0.19 0.17 96 1006.6
20260506130431 54 259 0.0 0.0 0.08 0.19 0.16 96 1006.6
20260506130329 54 259 0.0 0.0 0.08 0.19 0.16 96 1006.7
20260506130224 54 259 0.0 0.0 0.08 0.19 0.16 96 1006.7
20260506125858 54 259 0.0 0.0 0.08 0.19 0.16 96 1006.8
20260506125536 55 259 0.0 0.0 0.08 0.17 0.15 96 1006.8
20260506125431 55 259 0.0 0.0 0.08 0.17 0.15 96 1006.8
20260506125327 55 259 0.0 0.0 0.08 0.17 0.15 96 1006.7
20260506125224 55 259 0.0 0.0 0.08 0.17 0.15 96 1006.7
20260506125120 55 259 0.0 0.0 0.08 0.17 0.15 96 1006.7
20260506125018 55 259 0.0 0.0 0.08 0.17 0.15 96 1006.7
20260506124910 55 259 0.0 0.0 0.09 0.17 0.13 96 1006.7
20260506124807 55 259 0.0 0.0 0.10 0.17 0.13 96 1006.7
20260506124701 55 259 0.0 0.0 0.10 0.17 0.13 96 1006.8
20260506123633 55 259 0.0 0.0 0.10 0.15 0.13 97 1006.8
20260506123311 55 259 0.0 0.0 0.13 0.15 0.12 96 1006.8
20260506123205 55 259 0.0 0.0 0.13 0.13 0.12 96 1006.9
20260506123057 55 259 0.0 0.0 0.13 0.13 0.10 96 1006.9
20260506122955 55 259 0.0 0.0 0.10 0.13 0.10 96 1006.9
20260506122630 55 259 0.0 0.0 0.10 0.12 0.10 96 1007.0
20260506122527 55 259 0.0 0.0 0.12 0.12 0.10 96 1007.1
20260506122421 55 259 0.0 0.0 0.13 0.12 0.10 96 1007.1
20260506122058 55 259 0.0 0.0 0.13 0.12 0.10 96 1007.0
20260506121953 55 259 0.0 0.0 0.08 0.12 0.09 96 1007.1
20260506121847 55 259 0.0 0.0 0.08 0.12 0.09 96 1007.2
20260506121742 55 258 0.0 0.0 0.08 0.12 0.09 96 1007.2
20260506121417 55 258 0.0 0.0 0.06 0.11 0.08 96 1007.1
20260506121313 55 258 0.0 0.0 0.06 0.11 0.08 96 1007.2
20260506121211 55 258 0.0 0.0 0.06 0.11 0.08 96 1007.2
20260506121103 55 258 0.0 0.0 0.06 0.11 0.08 96 1007.2
20260506120958 55 258 0.0 0.0 0.06 0.10 0.08 96 1007.3
20260506120852 55 259 0.0 0.0 0.06 0.10 0.08 96 1007.3
20260506120747 55 258 0.0 0.0 0.05 0.10 0.06 96 1007.3
20260506120640 55 258 0.0 0.0 0.05 0.10 0.06 96 1007.3
20260506120538 55 258 0.0 0.0 0.05 0.10 0.06 96 1007.3
20260506120433 55 258 0.0 0.0 0.05 0.10 0.06 96 1007.3
20260506120328 55 258 0.0 0.0 0.05 0.10 0.06 96 1007.2
20260506120223 55 259 0.0 0.0 0.05 0.10 0.06 96 1007.2
20260506120121 55 258 0.0 0.0 0.05 0.10 0.06 96 1007.1
20260506120017 55 258 0.0 0.0 0.05 0.09 0.06 96 1007.0
20260506115911 55 259 0.0 0.0 0.05 0.09 0.06 96 1007.0
20260506115809 55 258 0.0 0.0 0.04 0.09 0.06 97 1006.9
20260506115706 55 259 0.0 0.0 0.04 0.09 0.06 96 1006.7
20260506115601 55 258 0.0 0.0 0.04 0.09 0.06 97 1006.6
20260506115454 55 258 0.0 0.0 0.04 0.09 0.06 97 1006.7
20260506115349 55 258 0.0 0.0 0.04 0.09 0.06 97 1006.8
20260506115243 55 258 0.0 0.0 0.04 0.09 0.06 97 1006.8
20260506115141 55 258 0.0 0.0 0.04 0.09 0.06 97 1006.8
20260506115037 55 258 0.0 0.0 0.04 0.09 0.06 97 1006.7
20260506114931 55 258 0.0 0.0 0.04 0.08 0.06 97 1006.7
20260506114823 55 258 0.0 0.0 0.04 0.08 0.06 97 1006.6
20260506114717 55 258 0.0 0.0 0.00 0.08 0.05 97 1006.7
20260506114609 55 258 0.0 0.0 0.00 0.08 0.05 97 1006.6
20260506114501 55 258 0.0 0.0 0.00 0.08 0.05 97 1006.6
20260506114355 55 258 0.0 0.0 0.00 0.08 0.05 97 1006.4
20260506114251 55 258 0.0 0.0 0.00 0.08 0.05 97 1006.5
20260506114149 55 258 0.0 0.0 0.00 0.08 0.05 97 1006.5
20260506113820 55 258 0.0 0.0 0.00 0.08 0.05 97 1006.5
20260506113716 55 258 0.0 0.0 0.00 0.08 0.05 97 1006.5
20260506113609 55 258 0.0 0.0 0.00 0.08 0.05 97 1006.6
20260506113242 55 258 0.0 0.0 0.00 0.07 0.05 97 1006.6
20260506113140 55 258 0.0 0.0 0.00 0.07 0.04 97 1006.6
20260506113034 55 258 0.0 0.0 0.00 0.07 0.04 97 1006.6
20260506112929 55 258 0.0 0.0 0.00 0.07 0.04 97 1006.6
20260506112824 55 258 0.0 0.0 0.00 0.07 0.04 97 1006.6
20260506112238 55 258 0.0 0.0 0.00 0.07 0.04 97 1006.7
20260506112136 55 258 0.0 0.0 0.00 0.07 0.04 97 1006.8
20260506112029 55 258 0.0 0.0 0.00 0.07 0.04 97 1006.7
20260506111924 55 258 0.0 0.0 0.00 0.07 0.04 97 1006.7
20260506111821 55 258 0.0 0.0 0.00 0.07 0.04 97 1006.7
20260506111448 55 258 0.0 0.0 0.00 0.07 0.04 97 1006.6
20260506111340 55 258 0.0 0.0 0.00 0.07 0.04 97 1006.6
20260506111233 55 258 0.0 0.0 0.00 0.07 0.04 97 1006.6
20260506111125 55 258 0.0 0.0 0.00 0.07 0.04 97 1006.6
20260506111023 55 258 0.0 0.0 0.00 0.07 0.04 97 1006.5
20260506110918 55 258 0.0 0.0 0.00 0.07 0.04 97 1006.6
20260506110812 55 258 0.0 1.0 0.00 0.07 0.04 97 1006.6
20260506110704 55 258 0.0 1.0 0.00 0.07 0.04 96 1006.5
20260506110600 55 258 0.0 1.0 0.00 0.07 0.04 96 1006.4
20260506110453 55 259 0.0 0.0 0.00 0.07 0.04 96 1006.4
20260506110349 55 259 0.0 0.0 0.00 0.07 0.04 96 1006.3
20260506110246 55 259 0.0 0.0 0.00 0.07 0.04 96 1006.3
20260506105921 55 259 0.0 0.0 0.00 0.07 0.04 96 1006.5
20260506105812 55 259 0.0 0.0 0.00 0.07 0.04 96 1006.6
20260506105705 54 259 0.0 0.0 0.00 0.07 0.04 96 1006.4
20260506105559 54 259 0.0 0.0 0.00 0.07 0.04 96 1006.4
20260506105453 54 259 0.0 0.0 0.00 0.07 0.04 96 1006.3
20260506105347 54 259 0.0 0.0 0.00 0.07 0.04 96 1006.4
20260506105240 54 259 0.0 0.0 0.00 0.07 0.04 96 1006.4
20260506105134 54 259 0.0 0.0 0.00 0.07 0.04 96 1006.5
20260506105031 54 259 0.0 0.0 0.00 0.07 0.04 96 1006.5
20260506104927 54 259 0.0 0.0 0.00 0.07 0.04 96 1006.6
20260506104821 54 259 0.0 0.0 0.00 0.07 0.04 96 1006.5
20260506104716 54 259 0.0 0.0 0.00 0.07 0.04 96 1006.5
20260506104612 54 259 0.0 0.0 0.00 0.07 0.04 96 1006.5
20260506104246 54 259 0.0 0.0 0.04 0.07 0.04 96 1006.4
20260506104142 54 259 0.0 0.0 0.04 0.07 0.04 96 1006.5
20260506104037 54 259 0.0 0.0 0.04 0.07 0.04 96 1006.5
20260506103931 54 259 0.0 0.0 0.04 0.07 0.04 96 1006.5
20260506103827 54 259 0.0 0.0 0.04 0.07 0.04 96 1006.5
20260506103723 54 259 0.0 4.0 0.04 0.07 0.04 96 1006.6
20260506103620 54 259 0.0 4.0 0.04 0.07 0.04 96 1006.7
20260506103039 54 300 0.0 1.0 0.04 0.07 0.04 96 1006.2
20260506102717 54 286 0.0 0.0 0.00 0.06 0.03 96 1006.4
20260506102615 54 286 0.0 3.0 0.00 0.06 0.03 96 1006.5
20260506102511 54 286 0.0 3.0 0.00 0.06 0.03 96 1006.6
20260506102408 54 286 0.0 3.0 0.00 0.06 0.03 96 1006.6
20260506102305 54 286 0.0 3.0 0.00 0.06 0.03 96 1006.5
20260506102159 54 287 0.0 0.0 0.00 0.06 0.03 96 1006.4
20260506101839 54 287 0.0 0.0 0.00 0.06 0.03 96 1006.4
20260506101732 54 287 0.0 0.0 0.00 0.06 0.03 96 1006.5
20260506101628 54 287 0.0 0.0 0.00 0.06 0.03 96 1006.4
20260506101520 54 287 0.0 0.0 0.00 0.06 0.03 96 1006.3
20260506101417 54 287 0.0 0.0 0.00 0.05 0.03 96 1006.3
20260506101311 54 287 0.0 0.0 0.00 0.05 0.03 96 1006.3
20260506101208 54 287 0.0 0.0 0.00 0.05 0.02 96 1006.4
20260506101100 54 287 0.0 0.0 0.00 0.05 0.02 95 1006.4
20260506100740 54 287 0.0 0.0 0.00 0.05 0.02 95 1006.5
20260506100637 54 287 0.0 0.0 0.00 0.05 0.02 95 1006.4
20260506100533 54 287 0.0 0.0 0.00 0.05 0.02 95 1006.4
20260506100429 54 287 0.0 0.0 0.00 0.05 0.02 95 1006.4
20260506100323 54 287 0.0 0.0 0.00 0.05 0.02 95 1006.3
20260506100220 54 287 0.0 0.0 0.00 0.05 0.02 95 1006.3
20260506100117 54 287 0.0 0.0 0.00 0.05 0.02 95 1006.2
20260506095750 54 287 0.0 0.0 0.00 0.05 0.02 95 1006.2
20260506095648 54 287 0.0 0.0 0.00 0.05 0.02 95 1006.2
20260506095542 54 287 0.0 0.0 0.00 0.05 0.02 95 1006.2
20260506095439 54 287 0.0 0.0 0.00 0.05 0.02 95 1006.1
20260506095333 54 287 0.0 0.0 0.00 0.05 0.02 95 1006.1
20260506095228 54 287 0.0 0.0 0.00 0.05 0.02 95 1006.1
20260506095122 54 287 0.0 0.0 0.00 0.05 0.02 95 1006.1
20260506095018 54 287 0.0 0.0 0.00 0.05 0.02 95 1006.1
20260506094915 54 287 0.0 0.0 0.00 0.05 0.02 95 1006.2
20260506094549 54 287 0.0 0.0 0.00 0.05 0.02 95 1006.0
20260506094444 54 287 0.0 0.0 0.00 0.05 0.02 95 1006.1
20260506094338 54 287 0.0 0.0 0.00 0.05 0.02 95 1006.0
20260506094236 54 287 0.0 0.0 0.00 0.05 0.02 95 1006.0
20260506094128 54 287 0.0 0.0 0.00 0.05 0.02 95 1006.0
20260506094023 54 287 0.0 0.0 0.00 0.05 0.02 95 1006.1
20260506093655 54 287 0.0 0.0 0.00 0.05 0.02 95 1006.1
20260506093553 54 287 0.0 0.0 0.00 0.05 0.02 95 1006.1
20260506093448 54 287 0.0 0.0 0.00 0.05 0.02 95 1006.0
20260506093126 54 287 0.0 0.0 0.00 0.05 0.02 95 1006.0
20260506093020 54 287 0.0 0.0 0.00 0.05 0.02 95 1006.0
20260506092914 54 287 0.0 0.0 0.00 0.05 0.02 95 1006.0
20260506092810 54 287 0.0 0.0 0.00 0.05 0.02 95 1006.1
20260506092704 54 287 0.0 0.0 0.00 0.05 0.02 95 1006.1
20260506092601 54 287 0.0 0.0 0.00 0.05 0.02 95 1006.2
20260506092454 54 287 0.0 0.0 0.00 0.05 0.02 95 1006.2
20260506092348 54 287 0.0 0.0 0.00 0.05 0.02 95 1006.2
20260506092241 54 287 0.0 0.0 0.00 0.05 0.02 95 1006.2
20260506092134 54 287 0.0 0.0 0.00 0.05 0.02 95 1006.2
20260506092030 54 287 0.0 0.0 0.00 0.05 0.02 95 1006.2
20260506091923 54 287 0.0 0.0 0.00 0.05 0.02 95 1006.3
20260506091817 54 287 0.0 0.0 0.00 0.05 0.02 95 1006.3
20260506091713 54 287 0.0 0.0 0.00 0.05 0.02 95 1006.2
20260506091606 54 287 0.0 0.0 0.00 0.05 0.02 95 1006.2
20260506091243 54 287 0.0 0.0 0.00 0.05 0.02 95 1006.2
20260506091135 54 287 0.0 0.0 0.00 0.05 0.02 95 1006.2
20260506091032 54 287 0.0 0.0 0.00 0.05 0.02 94 1006.2
20260506090927 54 287 0.0 0.0 0.00 0.05 0.02 95 1006.2
20260506090558 54 287 0.0 0.0 0.00 0.05 0.02 94 1006.3
20260506090450 54 287 0.0 0.0 0.00 0.05 0.02 94 1006.3
20260506090346 54 287 0.0 0.0 0.00 0.05 0.02 94 1006.4
20260506090022 54 287 0.0 0.0 0.00 0.05 0.02 94 1006.4
20260506085920 54 287 0.0 0.0 0.00 0.05 0.02 94 1006.4
20260506085818 54 287 0.0 0.0 0.00 0.05 0.02 94 1006.3
20260506085713 54 287 0.0 0.0 0.00 0.05 0.02 94 1006.3
20260506085348 54 287 0.0 0.0 0.00 0.05 0.02 94 1006.3
20260506085242 54 287 0.0 0.0 0.00 0.05 0.02 94 1006.3
20260506085139 54 287 0.0 0.0 0.00 0.05 0.02 94 1006.3
20260506085035 54 287 0.0 0.0 0.00 0.05 0.02 94 1006.3
20260506084933 54 287 0.0 0.0 0.00 0.05 0.02 94 1006.3
20260506084829 54 287 0.0 0.0 0.00 0.05 0.02 94 1006.3
20260506084725 54 287 0.0 0.0 0.00 0.05 0.02 94 1006.3
20260506084621 54 287 0.0 0.0 0.00 0.05 0.02 94 1006.4
20260506084518 54 287 0.0 0.0 0.00 0.05 0.02 94 1006.4
20260506084412 54 287 0.0 0.0 0.00 0.05 0.02 94 1006.4
20260506084046 54 287 0.0 0.0 0.00 0.05 0.02 94 1006.4
20260506083943 54 287 0.0 0.0 0.00 0.05 0.02 94 1006.4
20260506083837 54 287 0.0 0.0 0.00 0.05 0.02 94 1006.4
20260506083733 54 287 0.0 0.0 0.00 0.05 0.02 94 1006.4
20260506083407 54 287 0.0 0.0 0.00 0.05 0.02 94 1006.5
20260506083302 54 287 0.0 0.0 0.00 0.05 0.02 94 1006.5
20260506083159 55 287 0.0 0.0 0.00 0.05 0.02 94 1006.6
20260506083053 55 287 0.0 0.0 0.00 0.05 0.02 94 1006.5
20260506082945 55 287 0.0 0.0 0.00 0.05 0.02 94 1006.6
20260506082840 55 287 0.0 0.0 0.00 0.05 0.02 94 1006.6
20260506082734 55 287 0.0 0.0 0.00 0.05 0.02 94 1006.6
20260506082628 55 287 0.0 0.0 0.00 0.05 0.02 94 1006.5
20260506082521 55 287 0.0 0.0 0.00 0.05 0.02 94 1006.5
20260506082414 55 287 0.0 0.0 0.00 0.05 0.02 94 1006.5
20260506082310 55 287 0.0 0.0 0.00 0.05 0.02 94 1006.5
20260506082202 55 287 0.0 0.0 0.00 0.05 0.02 94 1006.6
20260506082055 55 287 0.0 0.0 0.00 0.05 0.02 94 1006.7
20260506081951 55 287 0.0 0.0 0.00 0.05 0.02 94 1006.8
20260506081845 55 287 0.0 0.0 0.00 0.05 0.02 94 1006.8
20260506081738 55 287 0.0 0.0 0.00 0.05 0.02 94 1006.9
20260506081411 55 287 0.0 0.0 0.00 0.05 0.02 94 1006.9
20260506081045 54 287 0.0 0.0 0.00 0.05 0.02 97 1006.9
20260506080943 54 287 0.0 0.0 0.00 0.05 0.02 97 1006.9
20260506080840 54 287 0.0 0.0 0.00 0.05 0.02 97 1006.9
20260506080734 54 287 0.0 0.0 0.00 0.05 0.02 97 1006.8
20260506080629 54 287 0.0 0.0 0.00 0.05 0.02 97 1006.8
20260506080525 54 287 0.0 0.0 0.00 0.05 0.02 97 1006.8
20260506080423 54 287 0.0 0.0 0.00 0.05 0.02 97 1006.8
20260506080318 54 287 0.0 0.0 0.00 0.05 0.02 97 1006.7
20260506080215 54 287 0.0 0.0 0.00 0.05 0.02 97 1006.6
20260506080111 54 287 0.0 0.0 0.00 0.05 0.02 96 1006.6
20260506073500 54 287 0.0 0.0 0.00 0.05 0.02 96 1006.9
20260506073357 54 287 0.0 0.0 0.00 0.05 0.02 96 1007.0
20260506073250 54 287 0.0 0.0 0.00 0.05 0.02 96 1007.1
20260506073144 54 287 0.0 0.0 0.00 0.05 0.02 96 1007.1
20260506073042 54 287 0.0 0.0 0.00 0.05 0.02 96 1007.1
20260506072933 54 287 0.0 0.0 0.00 0.05 0.02 96 1007.1
20260506072828 54 287 0.0 0.0 0.00 0.05 0.02 96 1007.1
20260506072726 54 287 0.0 0.0 0.00 0.05 0.02 96 1007.1
20260506072620 54 287 0.0 0.0 0.00 0.05 0.02 96 1007.1
20260506072256 55 287 0.0 0.0 0.00 0.05 0.02 96 1007.1
20260506072151 54 287 0.0 0.0 0.00 0.05 0.02 96 1007.1
20260506072046 55 287 0.0 0.0 0.00 0.05 0.02 96 1007.1
20260506071943 55 287 0.0 0.0 0.00 0.05 0.02 96 1007.1
20260506071840 55 287 0.0 0.0 0.00 0.05 0.02 96 1007.1
20260506071734 55 287 0.0 0.0 0.00 0.05 0.02 96 1007.1
20260506071628 55 287 0.0 0.0 0.00 0.05 0.02 96 1007.0
20260506071523 55 287 0.0 0.0 0.00 0.05 0.02 96 1007.1
20260506071414 55 287 0.0 0.0 0.00 0.05 0.02 96 1007.1
20260506071049 55 287 0.0 0.0 0.00 0.05 0.02 96 1007.0
20260506070942 55 287 0.0 0.0 0.00 0.05 0.02 96 1006.9
20260506070835 55 287 0.0 0.0 0.00 0.05 0.02 96 1006.9
20260506070732 55 287 0.0 0.0 0.00 0.05 0.02 96 1006.9
20260506070626 55 287 0.0 0.0 0.00 0.05 0.02 96 1006.9
20260506070520 56 287 0.0 0.0 0.00 0.05 0.02 93 1006.8
20260506070415 56 287 0.0 0.0 0.00 0.05 0.02 93 1006.8
20260506070311 56 287 0.0 0.0 0.00 0.05 0.02 93 1006.8
20260506070208 56 287 0.0 0.0 0.00 0.05 0.02 93 1006.9
20260506062412 56 302 0.0 0.0 0.00 0.05 0.02 92 1007.2
20260506062310 56 302 0.0 0.0 0.00 0.05 0.02 92 1007.2
20260506061944 56 302 0.0 0.0 0.00 0.05 0.02 92 1007.1
20260506061838 56 302 0.0 0.0 0.00 0.05 0.02 92 1007.2
20260506061256 57 302 0.0 0.0 0.00 0.05 0.02 92 1007.2
20260506061150 57 302 0.0 0.0 0.00 0.05 0.02 92 1007.2
20260506061042 57 302 0.0 0.0 0.00 0.05 0.02 92 1007.2
20260506060935 57 302 0.0 0.0 0.00 0.05 0.02 92 1007.2
20260506060607 57 302 0.0 0.0 0.00 0.05 0.02 92 1007.2
20260506060501 57 302 0.0 0.0 0.00 0.05 0.02 92 1007.2
20260506060355 57 302 0.0 0.0 0.00 0.05 0.02 92 1007.2
20260506060251 57 302 0.0 0.0 0.00 0.05 0.02 92 1007.2
20260506060146 57 302 0.0 0.0 0.00 0.05 0.02 92 1007.3
20260506051409 59 302 0.0 0.0 0.00 0.03 0.00 86 1007.2
20260506051039 59 302 0.0 0.0 0.00 0.03 0.00 85 1007.1
20260506050936 60 302 0.0 0.0 0.00 0.03 0.00 85 1007.0
20260506050353 60 302 0.0 0.0 0.00 0.03 0.00 84 1006.9
20260506050248 60 302 0.0 0.0 0.00 0.03 0.00 85 1006.9
20260506050143 60 302 0.0 1.0 0.00 0.03 0.00 84 1007.0
20260506045055 60 355 0.0 0.0 0.00 0.03 0.00 84 1007.2
20260506044948 60 355 0.0 0.0 0.00 0.03 0.00 84 1007.2
20260506044622 61 347 0.0 1.0 0.00 0.03 0.00 84 1007.1
20260506044520 61 263 0.0 0.0 0.00 0.03 0.00 85 1007.1
20260506044154 61 263 0.0 1.0 0.00 0.03 0.00 83 1007.1
20260506044051 61 263 0.0 0.0 0.00 0.03 0.00 83 1007.1
20260506043724 61 263 0.0 3.0 0.00 0.03 0.00 83 1007.5
20260506043618 61 263 0.0 3.0 0.00 0.03 0.00 83 1007.5
20260506043516 61 262 0.0 0.0 0.00 0.03 0.00 83 1007.5
20260506043409 61 262 0.0 0.0 0.00 0.03 0.00 83 1007.4
20260506043304 61 262 0.0 0.0 0.00 0.03 0.00 82 1007.4
20260506043200 61 262 1.0 0.0 0.00 0.03 0.00 82 1007.3
20260506042621 61 263 0.0 6.0 0.00 0.03 0.00 83 1007.6
20260506042514 61 263 0.0 6.0 0.00 0.03 0.00 83 1007.6
20260506042411 61 267 0.0 6.0 0.00 0.03 0.00 82 1007.5
20260506042305 61 239 0.0 6.0 0.00 0.03 0.00 83 1007.5
20260506042156 61 295 0.0 3.0 0.00 0.03 0.00 83 1007.5
20260506042052 61 306 0.0 3.0 0.00 0.03 0.00 83 1007.5
20260506041950 62 267 0.0 0.0 0.00 0.03 0.00 83 1007.5
20260506041845 62 267 0.0 0.0 0.00 0.03 0.00 83 1007.4
20260506041740 62 267 0.0 3.0 0.00 0.03 0.00 83 1007.5
20260506041634 62 266 0.0 1.0 0.00 0.03 0.00 83 1007.5
20260506041526 62 265 0.0 3.0 0.00 0.03 0.00 83 1007.4
20260506041419 62 265 0.0 3.0 0.00 0.03 0.00 82 1007.4
20260506041315 62 265 0.0 3.0 0.00 0.03 0.00 82 1007.4
20260506041210 62 263 0.0 0.0 0.00 0.03 0.00 82 1007.4
20260506041103 62 263 0.0 0.0 0.00 0.03 0.00 81 1007.4
20260506040738 62 289 0.0 0.0 0.00 0.03 0.00 82 1007.4
20260506040633 62 289 0.0 0.0 0.00 0.03 0.00 81 1007.3
20260506040525 62 289 0.0 0.0 0.00 0.03 0.00 81 1007.3
20260506040200 62 289 0.0 0.0 0.00 0.03 0.00 80 1007.2
20260506040055 62 289 0.0 0.0 0.00 0.03 0.00 80 1007.2
20260506035951 62 289 0.0 1.0 0.00 0.03 0.03 80 1007.2
20260506035846 62 289 0.0 1.0 0.00 0.03 0.03 80 1007.2
20260506035739 62 289 0.0 6.0 0.00 0.03 0.03 80 1007.2
20260506035412 62 277 0.0 1.0 0.00 0.03 0.03 80 1007.2
20260506035310 62 277 0.0 0.0 0.00 0.03 0.03 80 1007.2
20260506035204 62 277 0.0 6.0 0.00 0.03 0.03 80 1007.2
20260506035101 62 277 1.0 6.0 0.00 0.03 0.03 80 1007.2
20260506034954 62 282 1.0 6.0 0.00 0.03 0.03 80 1007.2
20260506034849 62 284 1.0 6.0 0.00 0.03 0.03 80 1007.3
20260506034745 62 284 1.0 6.0 0.00 0.03 0.03 80 1007.3
20260506034642 62 329 1.0 6.0 0.00 0.03 0.03 80 1007.2
20260506034534 62 329 1.0 6.0 0.00 0.03 0.03 80 1007.2
20260506034430 62 319 3.0 6.0 0.00 0.03 0.03 80 1007.2
20260506034324 62 259 1.0 6.0 0.00 0.03 0.03 80 1007.3
20260506034218 62 290 1.0 6.0 0.00 0.03 0.03 80 1007.3
20260506034112 62 290 1.0 6.0 0.00 0.03 0.03 81 1007.3
20260506034008 62 293 1.0 6.0 0.00 0.03 0.03 81 1007.3
20260506033905 62 296 1.0 6.0 0.00 0.03 0.03 81 1007.3
20260506033541 61 261 1.0 6.0 0.00 0.03 0.03 82 1007.4
20260506033433 61 288 0.0 3.0 0.00 0.03 0.03 83 1007.4
20260506033326 61 298 1.0 3.0 0.00 0.03 0.03 83 1007.4
20260506033219 61 301 1.0 9.0 0.00 0.03 0.03 83 1007.3
20260506033113 61 301 1.0 9.0 0.00 0.03 0.03 84 1007.2
20260506032744 60 336 1.0 9.0 0.00 0.03 0.03 84 1007.1
20260506032640 60 340 1.0 9.0 0.00 0.03 0.03 85 1007.1
20260506032533 60 331 0.0 9.0 0.00 0.03 0.03 86 1007.1
20260506032431 60 336 0.0 9.0 0.00 0.03 0.03 86 1007.0
20260506032324 60 274 0.0 9.0 0.00 0.03 0.03 87 1007.0
20260506032220 60 263 0.0 3.0 0.00 0.03 0.03 87 1007.1
20260506032114 60 263 0.0 3.0 0.00 0.03 0.03 87 1007.1
20260506032009 60 263 0.0 3.0 0.00 0.03 0.03 87 1007.1
20260506031906 60 263 0.0 3.0 0.00 0.03 0.03 87 1007.0
20260506031804 60 261 0.0 3.0 0.00 0.03 0.03 87 1007.0
20260506031659 60 342 0.0 3.0 0.00 0.03 0.03 87 1007.1
20260506031553 60 175 0.0 3.0 0.00 0.03 0.03 87 1007.1
20260506031008 60 175 0.0 0.0 0.00 0.03 0.03 87 1007.1
20260506030902 60 175 0.0 0.0 0.00 0.03 0.03 87 1007.1
20260506030759 60 175 0.0 0.0 0.00 0.03 0.03 87 1007.0
20260506030655 60 175 0.0 0.0 0.00 0.03 0.03 87 1007.0
20260506030552 60 175 0.0 0.0 0.00 0.03 0.03 87 1007.0
20260506030450 60 175 0.0 0.0 0.00 0.03 0.03 87 1007.0
20260506030344 60 175 0.0 0.0 0.00 0.03 0.03 87 1006.9
20260506030240 60 175 0.0 0.0 0.00 0.03 0.03 87 1006.9
20260506030134 60 175 0.0 0.0 0.00 0.03 0.03 87 1006.9
20260506025806 60 175 0.0 3.0 0.00 0.03 0.03 86 1006.9
20260506025222 60 175 0.0 0.0 0.00 0.03 0.03 86 1006.8
20260506025116 60 175 0.0 0.0 0.00 0.03 0.03 86 1006.8
20260506025010 60 175 0.0 0.0 0.00 0.03 0.03 86 1006.8
20260506024430 60 175 0.0 3.0 0.00 0.03 0.03 86 1006.8
20260506024106 60 175 0.0 1.0 0.00 0.03 0.03 86 1006.8
20260506023959 60 175 0.0 1.0 0.00 0.03 0.03 86 1006.8
20260506023639 60 175 0.0 0.0 0.00 0.03 0.03 85 1006.8
20260506023536 60 175 0.0 0.0 0.00 0.03 0.03 85 1006.8
20260506023214 61 175 0.0 3.0 0.00 0.03 0.03 85 1006.7
20260506023110 61 175 0.0 3.0 0.00 0.03 0.03 85 1006.7
20260506023002 61 175 0.0 3.0 0.00 0.03 0.03 85 1006.7
20260506022859 61 175 0.0 3.0 0.00 0.03 0.03 85 1006.7
20260506022752 61 175 0.0 3.0 0.00 0.03 0.03 85 1006.6
20260506022649 61 158 0.0 3.0 0.00 0.03 0.03 85 1006.6
20260506022543 61 158 0.0 3.0 0.00 0.03 0.03 84 1006.5
20260506022439 61 158 0.0 3.0 0.00 0.03 0.03 84 1006.6
20260506022114 61 158 0.0 1.0 0.00 0.03 0.03 84 1006.6
20260506022007 61 158 0.0 0.0 0.00 0.03 0.03 84 1006.6
20260506021902 61 158 0.0 3.0 0.00 0.03 0.03 84 1006.6
20260506021754 61 158 0.0 3.0 0.00 0.03 0.03 84 1006.7
20260506021651 61 158 0.0 3.0 0.00 0.03 0.03 84 1006.7
20260506021547 61 158 0.0 3.0 0.00 0.03 0.03 84 1006.7
20260506021444 61 158 0.0 3.0 0.00 0.03 0.03 84 1006.7
20260506021337 61 158 0.0 3.0 0.00 0.03 0.03 84 1006.7
20260506021234 61 158 0.0 3.0 0.00 0.03 0.03 84 1006.7
20260506021131 61 158 0.0 3.0 0.00 0.03 0.03 85 1006.8
20260506021027 61 158 0.0 3.0 0.00 0.03 0.03 85 1006.7
20260506020703 61 164 0.0 3.0 0.00 0.03 0.03 84 1006.7
20260506020341 61 165 0.0 3.0 0.00 0.03 0.03 84 1006.6
20260506020233 61 161 0.0 3.0 0.00 0.03 0.03 84 1006.6
20260506020128 61 162 0.0 0.0 0.00 0.03 0.03 84 1006.6
20260506020025 61 162 0.0 3.0 0.00 0.03 0.03 84 1006.6
20260506015922 61 162 0.0 3.0 0.00 0.03 0.03 83 1006.6
20260506015818 61 162 0.0 1.0 0.00 0.03 0.03 83 1006.6
20260506015711 61 162 0.0 0.0 0.00 0.03 0.03 83 1006.4
20260506015608 61 162 0.0 1.0 0.00 0.03 0.03 83 1006.4
20260506015505 61 162 0.0 1.0 0.00 0.03 0.03 83 1006.4
20260506015401 61 162 0.0 0.0 0.00 0.03 0.03 83 1006.3
20260506015257 61 162 0.0 0.0 0.00 0.03 0.03 82 1006.3
20260506014937 62 162 0.0 0.0 0.00 0.03 0.03 82 1006.3
20260506014831 62 162 0.0 0.0 0.00 0.03 0.03 82 1006.3
20260506014724 62 162 0.0 0.0 0.00 0.03 0.03 82 1006.3
20260506014618 62 162 0.0 0.0 0.00 0.03 0.03 82 1006.3
20260506014511 62 162 0.0 0.0 0.00 0.03 0.03 81 1006.3
20260506014408 62 162 0.0 0.0 0.00 0.03 0.03 81 1006.2
20260506014305 62 162 0.0 0.0 0.00 0.03 0.03 81 1006.2
20260506014200 62 162 0.0 4.0 0.00 0.03 0.03 81 1006.2
20260506014054 62 162 0.0 4.0 0.00 0.03 0.03 81 1006.2
20260506013949 62 162 1.0 4.0 0.00 0.03 0.03 81 1006.2
20260506013842 62 162 1.0 4.0 0.00 0.03 0.03 81 1006.1
20260506013740 62 158 1.0 4.0 0.00 0.03 0.03 81 1006.1
20260506013633 62 158 1.0 4.0 0.00 0.03 0.03 81 1006.0
20260506013524 62 158 1.0 4.0 0.00 0.03 0.03 80 1006.0
20260506013421 62 158 1.0 4.0 0.00 0.03 0.03 80 1006.0
20260506013317 62 158 3.0 4.0 0.00 0.03 0.03 80 1006.0
20260506013211 62 158 3.0 4.0 0.00 0.03 0.03 80 1006.0
20260506013106 62 150 3.0 4.0 0.00 0.03 0.03 80 1005.9
20260506013004 62 144 1.0 4.0 0.00 0.03 0.03 81 1005.9
20260506012901 62 159 1.0 4.0 0.00 0.03 0.03 81 1006.0
20260506012757 62 159 1.0 4.0 0.00 0.03 0.03 80 1005.9
20260506012651 62 158 1.0 4.0 0.00 0.03 0.03 80 1005.9
20260506012549 62 151 1.0 4.0 0.00 0.03 0.03 80 1005.8
20260506012224 63 177 0.0 3.0 0.00 0.03 0.03 79 1005.8
20260506012118 63 180 0.0 3.0 0.00 0.03 0.03 79 1005.8
20260506012012 63 180 0.0 3.0 0.00 0.03 0.03 79 1005.8
20260506011910 63 180 0.0 0.0 0.00 0.03 0.03 79 1005.8
20260506011805 63 180 0.0 0.0 0.00 0.03 0.03 79 1005.7
20260506011700 63 180 0.0 0.0 0.00 0.03 0.03 79 1005.8
20260506011556 63 180 0.0 0.0 0.00 0.03 0.03 79 1005.8
20260506011452 63 180 0.0 0.0 0.00 0.03 0.03 78 1005.8
20260506011125 63 180 0.0 0.0 0.00 0.03 0.03 78 1005.7
20260506011017 63 180 1.0 0.0 0.00 0.03 0.03 78 1005.6
20260506010912 63 180 1.0 6.0 0.00 0.03 0.03 78 1005.7
20260506010806 63 180 1.0 6.0 0.00 0.03 0.03 77 1005.8
20260506010701 63 180 1.0 6.0 0.00 0.03 0.03 77 1005.7
20260506010557 63 180 1.0 8.0 0.00 0.03 0.03 77 1005.6
20260506010450 63 198 1.0 8.0 0.00 0.03 0.03 77 1005.6
20260506010345 63 198 1.0 8.0 0.00 0.03 0.03 77 1005.6
20260506010020 63 199 3.0 8.0 0.00 0.03 0.03 77 1005.7
20260506005658 63 166 3.0 8.0 0.00 0.03 0.03 77 1005.7
20260506005553 63 161 3.0 8.0 0.00 0.03 0.03 77 1005.8
20260506005449 63 160 3.0 8.0 0.00 0.03 0.03 77 1005.9
20260506005344 63 171 3.0 8.0 0.00 0.03 0.03 77 1006.0
20260506005239 63 174 3.0 8.0 0.00 0.03 0.03 77 1005.9
20260506005133 63 174 3.0 8.0 0.00 0.03 0.03 77 1005.9
20260506005026 63 167 1.0 8.0 0.00 0.03 0.03 77 1005.9
20260506004919 62 174 1.0 8.0 0.00 0.03 0.03 77 1005.8
20260506004817 62 168 1.0 8.0 0.00 0.03 0.03 78 1005.8
20260506004451 62 237 0.0 3.0 0.00 0.03 0.03 78 1005.7
20260506004345 62 237 0.0 3.0 0.00 0.03 0.03 78 1005.6
20260506004237 62 238 0.0 3.0 0.00 0.03 0.03 78 1005.5
20260506004134 62 240 0.0 3.0 0.00 0.03 0.03 78 1005.4
20260506004028 62 240 0.0 3.0 0.00 0.03 0.03 78 1005.3
20260506003924 62 240 0.0 3.0 0.00 0.03 0.03 79 1005.3
20260506003816 62 161 0.0 3.0 0.00 0.03 0.03 79 1005.2
20260506003712 62 161 0.0 1.0 0.00 0.03 0.03 78 1005.2
20260506003606 63 161 0.0 1.0 0.00 0.03 0.03 78 1005.1
20260506003501 63 163 0.0 1.0 0.00 0.03 0.03 78 1005.1
20260506003357 63 163 0.0 1.0 0.00 0.03 0.03 78 1005.2
20260506003256 63 163 0.0 1.0 0.00 0.03 0.03 77 1005.2
20260506003148 63 163 1.0 0.0 0.00 0.03 0.03 77 1005.2
20260506002821 63 163 1.0 6.0 0.00 0.03 0.03 76 1005.2
20260506002715 63 160 1.0 6.0 0.00 0.03 0.03 76 1005.2
20260506002611 63 159 1.0 6.0 0.00 0.03 0.03 76 1005.2
20260506002507 63 159 1.0 6.0 0.00 0.03 0.03 76 1005.3
20260506002400 63 160 1.0 6.0 0.00 0.03 0.03 76 1005.2
20260506002258 63 160 0.0 6.0 0.00 0.03 0.03 76 1005.2
20260506002149 63 154 0.0 6.0 0.00 0.03 0.03 76 1005.2
20260506002046 63 187 0.0 3.0 0.00 0.03 0.03 75 1005.2
20260506001940 63 259 0.0 3.0 0.00 0.03 0.03 75 1005.2
20260506001834 64 287 0.0 3.0 0.00 0.03 0.03 75 1005.1
20260506001732 64 287 0.0 3.0 0.00 0.03 0.03 74 1005.1
20260506001626 64 288 0.0 0.0 0.00 0.03 0.03 74 1005.1
20260506001522 64 289 0.0 0.0 0.00 0.03 0.03 74 1005.1
20260506001417 64 289 0.0 0.0 0.00 0.03 0.03 73 1005.0
20260506001312 64 290 0.0 0.0 0.00 0.03 0.03 73 1005.0
20260506001208 64 289 0.0 0.0 0.00 0.03 0.03 74 1005.1
20260506001102 64 290 0.0 0.0 0.00 0.03 0.03 73 1005.1
20260506000957 65 289 0.0 0.0 0.00 0.03 0.03 73 1005.1
20260506000634 65 289 0.0 0.0 0.00 0.03 0.03 72 1005.0
20260506000528 65 289 0.0 0.0 0.00 0.03 0.03 72 1005.0
20260506000425 65 289 0.0 0.0 0.00 0.03 0.03 71 1005.0
20260506000320 65 289 0.0 0.0 0.00 0.03 0.03 71 1005.0
20260506000213 65 289 0.0 0.0 0.00 0.03 0.03 71 1004.9
20260506000110 65 289 0.0 0.0 0.00 0.03 0.03 70 1004.9
20260506000007 65 289 0.0 0.0 0.00 0.03 0.03 70 1004.9
20260505235901 65 289 0.0 0.0 0.00 0.03 0.03 70 1004.9
20260505235758 66 289 0.0 0.0 0.00 0.03 0.03 70 1005.0
20260505235652 66 289 0.0 0.0 0.00 0.03 0.03 70 1005.0
20260505235105 66 289 1.0 6.0 0.00 0.03 0.03 70 1004.9
20260505234741 66 297 3.0 6.0 0.00 0.03 0.03 69 1004.8
20260505234412 66 277 4.0 9.0 0.00 0.03 0.03 70 1004.8
20260505234304 66 328 4.0 9.0 0.00 0.03 0.03 70 1004.7
20260505234156 66 311 4.0 9.0 0.00 0.03 0.03 70 1004.8
20260505234048 66 309 4.0 9.0 0.00 0.03 0.03 70 1004.7
20260505233942 66 313 4.0 9.0 0.00 0.03 0.03 70 1004.6
20260505233836 66 313 4.0 9.0 0.00 0.03 0.03 70 1004.7
20260505233509 66 323 5.0 17.0 0.00 0.03 0.03 71 1004.6
20260505233406 66 298 5.0 17.0 0.00 0.03 0.03 71 1004.6
20260505233302 66 288 5.0 17.0 0.00 0.03 0.03 71 1004.5
20260505233158 66 293 5.0 17.0 0.00 0.03 0.03 71 1004.4
20260505233051 66 316 5.0 17.0 0.00 0.03 0.03 70 1004.5
20260505232944 66 328 5.0 17.0 0.00 0.03 0.03 71 1004.3
20260505232841 66 315 5.0 17.0 0.00 0.03 0.03 71 1004.4
20260505232733 66 275 5.0 17.0 0.00 0.03 0.03 71 1004.4
20260505232627 66 275 6.0 17.0 0.00 0.03 0.03 71 1004.3
20260505232519 66 261 6.0 17.0 0.00 0.03 0.03 71 1004.2
20260505232415 66 247 6.0 17.0 0.00 0.03 0.03 71 1004.2
20260505232310 66 279 6.0 17.0 0.00 0.03 0.03 71 1004.2
20260505231946 66 290 6.0 17.0 0.00 0.03 0.03 71 1004.2
20260505231838 66 255 5.0 17.0 0.00 0.03 0.03 71 1004.2
20260505231735 66 355 5.0 17.0 0.00 0.03 0.03 71 1004.2
20260505231628 65 284 4.0 17.0 0.00 0.03 0.03 72 1004.2
20260505231525 65 350 4.0 12.0 0.00 0.03 0.03 72 1004.3
20260505231419 65 293 5.0 12.0 0.00 0.03 0.03 72 1004.2
20260505231317 65 309 4.0 11.0 0.00 0.03 0.03 72 1004.3
20260505231211 65 302 4.0 11.0 0.00 0.03 0.03 72 1004.2
20260505231108 65 324 4.0 11.0 0.00 0.03 0.03 72 1004.2
20260505231003 65 325 5.0 11.0 0.00 0.03 0.03 72 1004.3
20260505230854 65 258 5.0 11.0 0.00 0.03 0.03 72 1004.4
20260505230751 65 299 5.0 11.0 0.00 0.03 0.03 72 1004.3
20260505230646 65 284 5.0 11.0 0.00 0.03 0.03 72 1004.4
20260505230541 65 291 5.0 11.0 0.00 0.03 0.03 72 1004.5
20260505225951 65 331 5.0 13.0 0.00 0.03 0.03 72 1004.3
20260505225845 65 278 5.0 13.0 0.00 0.03 0.03 72 1004.3
20260505225738 65 279 5.0 13.0 0.00 0.03 0.03 72 1004.4
20260505225632 65 283 5.0 13.0 0.00 0.03 0.03 72 1004.3
20260505225527 65 334 5.0 13.0 0.00 0.03 0.03 72 1004.3
20260505225420 65 271 5.0 13.0 0.00 0.03 0.03 72 1004.3
20260505224831 65 272 6.0 19.0 0.00 0.03 0.03 73 1004.4
20260505224726 65 252 6.0 19.0 0.00 0.03 0.03 73 1004.3
20260505224622 65 323 6.0 19.0 0.00 0.03 0.03 73 1004.3
20260505224515 65 319 5.0 19.0 0.00 0.03 0.03 73 1004.4
20260505224410 65 277 5.0 19.0 0.00 0.03 0.03 72 1004.5
20260505224303 65 311 6.0 19.0 0.00 0.03 0.03 73 1004.4
20260505224159 65 279 6.0 19.0 0.00 0.03 0.03 73 1004.4
20260505224055 65 299 6.0 19.0 0.00 0.03 0.03 73 1004.5
20260505223950 65 289 6.0 19.0 0.00 0.03 0.03 73 1004.4
20260505223843 65 274 6.0 19.0 0.00 0.03 0.03 73 1004.4
20260505223738 65 306 6.0 19.0 0.00 0.03 0.03 73 1004.4
20260505223631 65 292 6.0 19.0 0.00 0.03 0.03 74 1004.4
20260505223525 65 301 6.0 19.0 0.00 0.03 0.03 74 1004.4
20260505223418 65 347 6.0 19.0 0.00 0.03 0.03 73 1004.5
20260505223315 65 279 6.0 19.0 0.00 0.03 0.03 73 1004.5
20260505223207 65 239 6.0 17.0 0.00 0.02 0.03 73 1004.6
20260505223102 65 246 6.0 17.0 0.00 0.02 0.02 73 1004.7
20260505222959 66 246 6.0 17.0 0.00 0.02 0.02 74 1004.8
20260505222856 66 200 6.0 17.0 0.00 0.02 0.02 73 1005.0
20260505222534 66 334 6.0 17.0 0.00 0.02 0.02 71 1004.4
20260505222432 66 252 6.0 17.0 0.00 0.02 0.02 71 1004.7
20260505222325 66 224 7.0 17.0 0.00 0.02 0.02 69 1004.8
20260505222218 66 188 7.0 17.0 0.00 0.02 0.02 69 1004.7
20260505222114 66 214 7.0 17.0 0.00 0.02 0.02 70 1004.7
20260505222009 67 242 7.0 17.0 0.00 0.02 0.02 69 1004.7
20260505221903 67 297 6.0 17.0 0.00 0.02 0.02 69 1004.7
20260505221758 67 274 6.0 26.0 0.00 0.02 0.02 69 1004.7
20260505221655 67 219 6.0 26.0 0.00 0.02 0.02 69 1004.6
20260505221330 67 150 6.0 26.0 0.00 0.02 0.02 67 1004.6
20260505221224 67 159 7.0 26.0 0.00 0.02 0.02 67 1004.7
20260505221117 67 238 7.0 26.0 0.00 0.02 0.02 67 1004.7
20260505221009 67 229 7.0 26.0 0.00 0.02 0.02 67 1004.5
20260505220904 67 192 9.0 26.0 0.00 0.02 0.02 66 1004.6
20260505220757 67 234 9.0 26.0 0.00 0.02 0.02 66 1004.4
20260505220653 67 332 9.0 26.0 0.00 0.02 0.02 66 1004.4
20260505220550 67 322 9.0 26.0 0.00 0.02 0.02 66 1004.4
20260505220447 67 235 9.0 26.0 0.00 0.02 0.02 66 1004.3
20260505220345 67 210 8.0 26.0 0.00 0.02 0.02 67 1004.4
20260505220239 67 251 8.0 26.0 0.00 0.02 0.02 66 1004.3
20260505220131 67 301 8.0 26.0 0.00 0.02 0.02 66 1004.3
20260505220028 67 254 8.0 26.0 0.00 0.02 0.02 66 1004.3
20260505215920 67 259 8.0 26.0 0.00 0.02 0.02 65 1004.3
20260505215814 67 295 8.0 26.0 0.00 0.02 0.02 66 1004.1
20260505215711 67 300 7.0 20.0 0.00 0.02 0.02 65 1004.1
20260505215603 67 292 7.0 20.0 0.00 0.02 0.02 66 1004.1
20260505215456 67 252 7.0 20.0 0.00 0.02 0.02 67 1004.0
20260505215350 67 250 7.0 20.0 0.00 0.02 0.02 66 1004.1
20260505215246 67 340 8.0 20.0 0.00 0.02 0.02 65 1004.0
20260505215142 67 272 8.0 20.0 0.00 0.02 0.02 65 1003.7
20260505215039 67 257 8.0 20.0 0.00 0.02 0.02 65 1003.9
20260505214932 66 286 8.0 18.0 0.00 0.02 0.02 66 1003.8
20260505214825 66 284 8.0 18.0 0.00 0.02 0.02 67 1003.7
20260505214719 66 333 8.0 18.0 0.00 0.02 0.02 67 1003.8
20260505214614 66 281 9.0 18.0 0.00 0.02 0.02 68 1003.7
20260505214512 66 341 9.0 18.0 0.00 0.02 0.02 68 1003.8
20260505214404 66 0 9.0 18.0 0.00 0.02 0.02 67 1003.8
20260505214300 66 282 9.0 18.0 0.00 0.02 0.02 68 1003.8
20260505214154 66 290 8.0 23.0 0.00 0.02 0.02 68 1003.7
20260505214050 66 266 8.0 23.0 0.00 0.02 0.02 68 1003.7
20260505213242 67 276 9.0 34.0 0.00 0.02 0.02 68 1003.6
20260505213135 67 307 11.0 34.0 0.00 0.02 0.02 68 1003.7
20260505213028 67 329 11.0 34.0 0.00 0.02 0.02 67 1003.9
20260505212658 67 316 12.0 34.0 0.00 0.02 0.02 66 1003.8
20260505212555 67 298 13.0 34.0 0.00 0.02 0.02 65 1003.6
20260505212235 68 280 13.0 34.0 0.00 0.02 0.02 65 1003.5
20260505212130 68 333 13.0 34.0 0.00 0.02 0.02 64 1003.5
20260505212027 68 257 13.0 34.0 0.00 0.02 0.02 64 1003.6
20260505211921 68 282 12.0 34.0 0.00 0.02 0.02 64 1003.8
20260505211816 68 285 12.0 34.0 0.00 0.02 0.02 64 1003.8
20260505211714 68 304 11.0 34.0 0.00 0.02 0.02 64 1003.9
20260505211611 68 330 11.0 34.0 0.00 0.02 0.02 64 1003.8
20260505211504 68 229 11.0 34.0 0.00 0.02 0.02 64 1003.9
20260505211359 68 342 11.0 34.0 0.00 0.02 0.02 63 1004.0
20260505211032 69 311 11.0 32.0 0.00 0.02 0.02 64 1004.1
20260505210926 69 252 11.0 32.0 0.00 0.02 0.02 64 1003.9
20260505210824 69 306 12.0 32.0 0.00 0.02 0.02 64 1003.9
20260505210719 69 340 13.0 32.0 0.00 0.02 0.02 64 1004.1
20260505210613 69 334 13.0 32.0 0.00 0.02 0.02 63 1004.1
20260505210250 70 271 14.0 30.0 0.00 0.02 0.02 63 1004.2
20260505210147 70 299 14.0 30.0 0.00 0.02 0.02 62 1004.1
20260505210040 71 330 14.0 30.0 0.00 0.02 0.02 62 1004.1
20260505205933 71 259 14.0 30.0 0.00 0.02 0.02 61 1004.1
20260505205611 72 280 11.0 30.0 0.00 0.01 0.02 60 1004.0
20260505205509 72 246 11.0 30.0 0.00 0.01 0.02 59 1004.0
20260505205405 73 300 8.0 20.0 0.00 0.01 0.01 58 1003.9
20260505205040 73 230 6.0 16.0 0.00 0.01 0.01 56 1003.8
20260505204712 73 282 6.0 13.0 0.00 0.01 0.01 56 1003.4
20260505204609 73 235 6.0 13.0 0.00 0.01 0.01 54 1003.4
20260505204503 74 286 5.0 13.0 0.00 0.01 0.01 55 1003.5
20260505204401 73 284 5.0 13.0 0.00 0.01 0.01 56 1003.3
20260505204254 73 199 5.0 13.0 0.00 0.01 0.01 55 1003.1
20260505204149 73 279 5.0 13.0 0.00 0.01 0.01 55 1002.9
20260505204045 73 249 5.0 13.0 0.00 0.01 0.01 55 1002.9
20260505203940 73 247 4.0 13.0 0.00 0.01 0.01 55 1002.7
20260505203352 73 234 3.0 9.0 0.00 0.01 0.01 57 1002.6
20260505203247 73 270 1.0 9.0 0.00 0.01 0.01 60 1002.6
20260505203143 73 228 1.0 6.0 0.00 0.01 0.01 58 1002.6
20260505203039 72 244 1.0 6.0 0.00 0.01 0.01 57 1002.5
20260505202936 72 232 1.0 6.0 0.00 0.01 0.01 59 1002.5
20260505202829 72 237 1.0 4.0 0.00 0.01 0.01 59 1002.5
20260505202725 72 277 1.0 8.0 0.00 0.01 0.01 62 1002.6
20260505202621 72 253 1.0 8.0 0.00 0.01 0.01 61 1002.6
20260505202520 71 253 1.0 8.0 0.00 0.01 0.01 62 1002.6
20260505202415 71 240 3.0 8.0 0.00 0.01 0.01 63 1002.6
20260505202312 71 233 3.0 8.0 0.00 0.01 0.01 64 1002.6
20260505201949 70 257 3.0 8.0 0.00 0.01 0.01 66 1002.6
20260505201846 70 259 3.0 8.0 0.00 0.01 0.01 66 1002.5
20260505201740 70 249 3.0 9.0 0.00 0.01 0.01 68 1002.5
20260505201636 70 263 3.0 9.0 0.00 0.01 0.01 67 1002.5
20260505201533 69 333 3.0 9.0 0.00 0.01 0.01 67 1002.6
20260505201427 69 270 3.0 9.0 0.00 0.01 0.01 69 1002.5
20260505201059 68 258 4.0 9.0 0.00 0.01 0.01 70 1002.3
20260505200734 67 237 4.0 9.0 0.00 0.01 0.01 72 1002.4
20260505200627 67 250 4.0 9.0 0.00 0.01 0.01 72 1002.3
20260505200525 67 338 4.0 9.0 0.00 0.01 0.01 73 1002.3
20260505195945 66 298 3.0 9.0 0.00 0.01 0.01 75 1002.5
20260505195842 67 286 3.0 9.0 0.00 0.01 0.01 74 1002.5
20260505195519 67 290 3.0 18.0 0.00 0.01 0.01 74 1002.5
20260505195151 67 283 5.0 18.0 0.00 0.01 0.01 71 1002.8
20260505195047 67 312 5.0 18.0 0.00 0.01 0.01 71 1003.2
20260505194940 67 313 6.0 18.0 0.00 0.01 0.01 71 1003.5
20260505194400 68 282 8.0 19.0 0.00 0.01 0.01 68 1004.2
20260505194256 68 244 9.0 19.0 0.00 0.01 0.01 67 1004.3
20260505194149 69 282 9.0 19.0 0.00 0.01 0.01 67 1004.4
20260505194043 69 317 9.0 19.0 0.00 0.01 0.01 67 1004.3
20260505193719 70 299 11.0 20.0 0.00 0.01 0.01 64 1004.1
20260505193617 70 325 11.0 20.0 0.00 0.01 0.01 64 1003.9
20260505193513 70 259 11.0 20.0 0.00 0.01 0.01 63 1003.9
20260505193410 70 277 11.0 20.0 0.00 0.01 0.01 61 1003.9
20260505193305 71 266 9.0 20.0 0.00 0.01 0.01 60 1003.7
20260505193200 71 294 9.0 20.0 0.00 0.01 0.01 60 1003.7
20260505193053 71 288 8.0 20.0 0.00 0.01 0.01 60 1003.6
20260505192947 72 269 8.0 20.0 0.00 0.01 0.01 58 1003.6
20260505192622 73 265 7.0 32.0 0.00 0.01 0.01 55 1003.2
20260505192256 74 213 7.0 32.0 0.00 0.01 0.01 52 1003.1
20260505192155 75 192 7.0 32.0 0.00 0.01 0.01 50 1003.3
20260505192050 75 209 8.0 32.0 0.00 0.01 0.01 50 1003.4
20260505191725 76 246 11.0 32.0 0.00 0.01 0.01 47 1003.1
20260505191621 76 245 12.0 32.0 0.00 0.01 0.01 47 1002.6
20260505191517 76 292 12.0 32.0 0.00 0.01 0.01 46 1002.4
20260505191414 77 242 12.0 32.0 0.00 0.01 0.01 44 1002.2
20260505191307 77 267 12.0 32.0 0.00 0.01 0.01 45 1002.2
20260505191159 78 259 12.0 32.0 0.00 0.01 0.01 43 1002.6
20260505191054 78 288 13.0 32.0 0.00 0.01 0.01 41 1002.4
20260505190949 78 251 12.0 32.0 0.00 0.01 0.01 39 1002.4
20260505190844 79 113 12.0 32.0 0.00 0.01 0.01 40 1002.9
20260505190516 79 282 11.0 26.0 0.00 0.01 0.01 39 1002.2
20260505190150 79 236 11.0 26.0 0.00 0.01 0.01 38 1001.7
20260505190044 79 257 11.0 26.0 0.00 0.01 0.01 38 1001.6
20260505185941 79 229 11.0 26.0 0.00 0.01 0.01 37 1001.5
20260505185617 79 205 11.0 26.0 0.00 0.01 0.01 38 1001.4
20260505185510 79 217 9.0 26.0 0.00 0.01 0.01 38 1001.4
20260505185402 79 199 9.0 26.0 0.00 0.01 0.01 38 1001.4
20260505185252 79 150 9.0 26.0 0.00 0.01 0.01 39 1001.3
20260505185149 79 213 8.0 26.0 0.00 0.01 0.01 39 1001.3
20260505185046 79 240 8.0 26.0 0.00 0.01 0.01 38 1001.3
20260505184939 79 242 7.0 26.0 0.00 0.01 0.01 38 1001.5
20260505184837 79 236 6.0 26.0 0.00 0.01 0.01 39 1001.4
20260505184513 79 169 6.0 16.0 0.00 0.01 0.01 39 1001.4
20260505184406 79 189 5.0 16.0 0.00 0.01 0.01 39 1001.4
20260505184257 79 246 5.0 16.0 0.00 0.01 0.01 40 1001.4
20260505184150 79 210 5.0 16.0 0.00 0.01 0.01 39 1001.4
20260505184047 79 176 5.0 16.0 0.00 0.01 0.01 39 1001.4
20260505183942 79 244 5.0 12.0 0.00 0.01 0.01 39 1001.2
20260505183839 79 232 5.0 12.0 0.00 0.01 0.01 39 1001.3
20260505183255 79 154 5.0 14.0 0.00 0.01 0.01 41 1001.3
20260505183150 79 221 5.0 14.0 0.00 0.01 0.01 40 1001.3
20260505183044 79 224 5.0 14.0 0.00 0.01 0.01 42 1001.3
20260505182719 79 213 5.0 14.0 0.00 0.01 0.01 46 1001.3
20260505182614 79 205 5.0 14.0 0.00 0.01 0.01 46 1001.5
20260505182510 79 176 5.0 14.0 0.00 0.01 0.01 45 1001.5
20260505182408 79 236 6.0 16.0 0.00 0.01 0.01 45 1001.5
20260505182306 79 156 5.0 16.0 0.00 0.01 0.01 45 1001.4
20260505182200 79 210 5.0 16.0 0.00 0.01 0.01 45 1001.4
20260505182055 79 157 5.0 16.0 0.00 0.01 0.01 45 1001.5
20260505181948 79 149 5.0 16.0 0.00 0.01 0.01 46 1001.5
20260505181400 79 105 6.0 22.0 0.00 0.01 0.01 46 1001.7
20260505181253 79 234 6.0 22.0 0.00 0.01 0.01 46 1001.7
20260505181147 79 146 7.0 22.0 0.00 0.01 0.01 47 1001.6
20260505181042 79 167 7.0 22.0 0.00 0.01 0.01 46 1001.6
20260505180935 79 146 7.0 22.0 0.00 0.01 0.01 46 1001.7
20260505180832 78 182 7.0 22.0 0.00 0.01 0.01 47 1001.6
20260505180727 78 163 7.0 22.0 0.00 0.01 0.01 48 1001.6
20260505180358 78 201 9.0 22.0 0.00 0.01 0.01 47 1001.6
20260505180252 78 132 9.0 22.0 0.00 0.01 0.01 47 1001.6
20260505175926 78 141 8.0 22.0 0.00 0.01 0.01 46 1001.7
20260505175821 78 173 8.0 22.0 0.00 0.01 0.01 46 1001.7
20260505175719 79 172 8.0 22.0 0.00 0.01 0.01 46 1001.7
20260505175613 79 134 8.0 22.0 0.00 0.01 0.01 46 1001.7
20260505175507 78 185 8.0 22.0 0.00 0.01 0.01 47 1001.8
20260505175401 78 185 7.0 20.0 0.00 0.01 0.01 46 1001.8
20260505175254 78 204 7.0 22.0 0.00 0.01 0.01 46 1001.9
20260505175147 78 147 6.0 22.0 0.00 0.01 0.01 47 1001.9
20260505174604 78 150 7.0 22.0 0.00 0.01 0.01 47 1002.1
20260505174458 78 128 7.0 22.0 0.00 0.01 0.01 48 1002.0
20260505174352 78 142 8.0 22.0 0.00 0.01 0.01 47 1002.1
20260505174246 78 184 8.0 22.0 0.00 0.01 0.01 49 1002.1
20260505174139 78 163 9.0 22.0 0.00 0.01 0.01 47 1002.1
20260505173816 78 202 9.0 22.0 0.00 0.01 0.01 46 1002.1
20260505173710 78 163 9.0 22.0 0.00 0.01 0.01 47 1002.2
20260505173605 78 184 9.0 22.0 0.00 0.01 0.01 46 1002.3
20260505173016 78 201 8.0 23.0 0.00 0.01 0.01 47 1002.4
20260505172913 78 196 9.0 23.0 0.00 0.01 0.01 47 1002.4
20260505172807 77 145 8.0 23.0 0.00 0.01 0.01 47 1002.5
20260505172701 78 146 9.0 23.0 0.00 0.01 0.01 46 1002.4